Tracking 18844 objects as of 21-Nov-2017
HD Live streaming from Space Station
objects crossing your sky now

EUTE 33A (EB 3)

Track EUTE 33A (EB 3) now!
EUTE 33A (EB 3) is classified as:


NORAD ID: 27948
Int'l Code: 2003-043A
Perigee: 35,781.4 km
Apogee: 35,806.3 km
Inclination: 2.7 °
Period: 1,436.1 minutes
Semi major axis: 42164 km
RCS: 1.8733 m2 (large)
Launch date: September 27, 2003
Source: European Telecommunications Satellite Organization (EUTE)
Launch site: FRENCH GUIANA (FRGUI)

20 Ku-band transponders; video and data transmission to Europe and Turkey.
aabbcc
Your satellite tracking list
Your tracking list is empty




NASA's NSSDC Master Catalog

Two Line Element Set (TLE):
1 27948U 03043A   17324.93865558 +.00000155 +00000-0 +00000-0 0  9997
2 27948 002.6834 077.7087 0002951 237.1770 114.0228 01.00271409014080
Source of the keplerian elements: AFSPC